Strona główna
METAR-TAF:

METAR-TAF

Lotnisko :

Chatham-Kent Municipal Airport

Chatham-Kent, Ontario, Kanada

Szerokość geograficzna: 42-18-22N, Długość geograficzna: 82-04-54W, wysokość: 197 m

Aktualna obserwacja pogody

Raport powstał 1 godzina i 14 minut temu, godzina 01:00 UTC
Wiatr 7 kt od zachodnio-południowy zachód
Temperatura -1°C
Wilgotność 93%
Ciśnienie 1019 hPa
Widzialność: 14.5 km
bezchmurnie

METAR: CYCK 170100Z AUTO 24007KT 9SM CLR M01/M02 A3008 RMK SLP196

czas: 21:14 (02:14 UTC)


TAF: brakujący

Obserwacja i prognoza pogody dla ponad 4000 lotnisk (raport METAR i TAF).

Dostępne stacje oznaczono żółtymi i czerwonymi punktami na mapie.

Najedź kursorem aby zobaczyć nazwę stacji.

Kliknij aby zobaczyć obserwacje i prognozy pogody.

Aby zmienić mapę: kliknij na zielony przycisk z czarnym krzyżykiem, aby powiększyć; na zielony przycisk z myślnikiem, aby pomniejszyć; na zielone strzałki, aby przejść do map sąsiednich.


METAR-TAF: